Regional Weather Roundup
Issued by NWS

Home | Current Version | Previous Version | Graphics & Text | Print | Product List | Glossary On
Versions: 1 2 3 4 5 6 7 8 9 10 11 12 13 14 15 16 17 18 19 20 21 22 23 24 25 26 27 28 29 30 31 32 33 34 35 36 37 38 39 40 41 42 43 44 45 46 47 48 49 50
000
ASUS43 KTOP 300659
RWRKS

WEATHER ROUNDUP FOR KANSAS
NATIONAL WEATHER SERVICE GOODLAND KS
200 AM CDT WED JUL 30 2014

NOTE:  "FAIR" INDICATES FEW OR NO CLOUDS BELOW 12,000 FEET WITH NO
SIGNIFICANT WEATHER AND/OR OBSTRUCTIONS TO VISIBILITY.

KSZ001>006-013>018-027>032-041>047-300800-
NORTHWEST KANSAS

CITY           SKY/WX    TMP DP  RH WIND       PRES   REMARKS
GOODLAND       LGT RAIN  64  63  96 CALM      30.17F
HAYS           CLOUDY    72  55  56 E12       30.11F
HILL CITY      CLOUDY    70  58  65 E10       30.13F
RUSSELL        CLOUDY    70  58  65 E8        30.10S
$$

KSZ061>065-074>080-084>089-300800-
SOUTHWEST KANSAS

CITY           SKY/WX    TMP DP  RH WIND       PRES   REMARKS
DODGE CITY     CLOUDY    69  59  70 E7        30.10F
ELKHART          N/A     66  62  87 S10         N/A
GARDEN CITY    LGT RAIN  66  64  93 SE8       30.10S
GREAT BEND     CLOUDY    70  61  73 S6        30.09R
LIBERAL        CLOUDY    66  61  82 SE7       30.09F
$$

KSZ066>073-081>083-090>101-300800-
SOUTHEAST KANSAS

CITY           SKY/WX    TMP DP  RH WIND       PRES   REMARKS
CHANUTE        CLOUDY    67  63  87 CALM      30.09F
COFFEYVILLE    PTCLDY    68  63  84 NE6       30.07F
HUTCHINSON     CLOUDY    71  58  63 SE10      30.08F
NEWTON         MOCLDY    70  54  56 SE7       30.12F
PARSONS        CLOUDY    68  62  81 CALM      30.09F
WICHITA INTL   MOCLDY    71  61  70 SE7       30.07F
WICHITA JABRA  PTCLDY    69  57  65 E5        30.08F
WINFIELD       MOCLDY    72  61  68 E6        30.09F
$$

KSZ007>012-019>026-033>040-048>060-102>105-300800-
NORTHEAST KANSAS

CITY           SKY/WX    TMP DP  RH WIND       PRES   REMARKS
CONCORDIA      HVY RAIN  64  63  96 SE6       30.13F FOG
EMPORIA        CLOUDY    65  62  90 CALM      30.10F
LAWRENCE       CLOUDY    69  62  78 S3        30.10F
MANHATTAN      CLOUDY    72  59  63 E6        30.10F
OLATHE IND     CLOUDY    71  58  63 E3        30.11F
OLATHE EXE     CLOUDY    68  61  78 CALM      30.10F
SALINA         CLOUDY    73  56  54 SE6       30.10F
TOPEKA BILLARD CLOUDY    71  62  73 CALM      30.10F
TOPEKA FORBES  CLOUDY    70  61  73 CALM      30.10F
$$



USA.gov is the U.S. government's official web portal to all federal, state and local government web resources and services.